owner,sensor,date,latitude,longitude,vertical_datum,direction_of_sea_water_velocity,sea_water_speed,upward_sea_water_velocity,qcFlag 
TABS,ioos:station:wmo:42048:1,2017-05-09T01:00:00Z,27.9396,-96.8429,2.0,54.36769207,22.50324865,-99999.0,'11111222,11111222,99999999' 
TABS,ioos:station:wmo:42048:1,2017-05-09T01:30:00Z,27.9396,-96.8429,2.0,47.42602195,24.89125348,-99999.0,'11111222,11111222,99999999' 
TABS,ioos:station:wmo:42048:1,2017-05-09T02:00:00Z,27.9396,-96.8429,2.0,49.98053066,22.96869609,-99999.0,'11111222,11111222,99999999' 
TABS,ioos:station:wmo:42048:1,2017-05-18T14:30:00Z,27.9396,-96.8429,2.0,212.8295094,24.75351288,-99999.0,'11111222,11111222,99999999' 
TABS,ioos:station:wmo:42048:1,2017-05-18T15:00:00Z,27.9396,-96.8429,2.0,205.4806279,22.45414216,-99999.0,'11111222,11111222,99999999' 
TABS,ioos:station:wmo:42048:1,2017-05-18T15:30:00Z,27.9396,-96.8429,2.0,207.8841083,23.11365397,-99999.0,'11111222,11111222,99999999' 
TABS,ioos:station:wmo:42048:1,2017-05-18T16:00:00Z,27.9396,-96.8429,2.0,210.0954817,25.92498602,-99999.0,'11111222,11111222,99999999' 
TABS,ioos:station:wmo:42048:1,2017-05-18T16:30:00Z,27.9396,-96.8429,2.0,210.0853183,26.07256221,-99999.0,'11111222,11111222,99999999' 
TABS,ioos:station:wmo:42048:1,2017-05-18T17:00:00Z,27.9396,-96.8429,2.0,220.5849906,27.1911493,-99999.0,'11111222,11111222,99999999' 
TABS,ioos:station:wmo:42048:1,2017-05-18T17:30:00Z,27.9396,-96.8429,2.0,219.3772968,24.68363831,-99999.0,'11111222,11111222,99999999' 
TABS,ioos:station:wmo:42048:1,2017-05-18T18:00:00Z,27.9396,-96.8429,2.0,224.3169666,21.95722432,-99999.0,'11111222,11111222,99999999' 
TABS,ioos:station:wmo:42048:1,2017-05-19T21:30:00Z,27.9396,-96.8429,2.0,205.7257939,41.53717973,-99999.0,'11111222,11111222,99999999' 
TABS,ioos:station:wmo:42048:1,2017-05-19T22:00:00Z,27.9396,-96.8429,2.0,202.4220586,33.24327451,-99999.0,'11111222,11111222,99999999' 
TABS,ioos:station:wmo:42048:1,2017-05-19T22:30:00Z,27.9396,-96.8429,2.0,219.8528597,27.74560145,-99999.0,'11111222,11111222,99999999' 
TABS,ioos:station:wmo:42048:1,2017-05-19T23:00:00Z,27.9396,-96.8429,2.0,227.1224927,34.93383603,-99999.0,'11111222,11111222,99999999' 
TABS,ioos:station:wmo:42048:1,2017-05-19T23:30:00Z,27.9396,-96.8429,2.0,218.5730814,37.27247242,-99999.0,'11111222,11111222,99999999' 
TABS,ioos:station:wmo:42048:1,2017-05-20T00:00:00Z,27.9396,-96.8429,2.0,224.9394112,33.60880391,-99999.0,'11111222,11111222,99999999' 
TABS,ioos:station:wmo:42048:1,2017-05-20T00:30:00Z,27.9396,-96.8429,2.0,221.4792458,37.07994067,-99999.0,'11111222,11111222,99999999' 
TABS,ioos:station:wmo:42048:1,2017-05-20T01:00:00Z,27.9396,-96.8429,2.0,222.9499782,43.691799,-99999.0,'11111222,11111222,99999999' 
TABS,ioos:station:wmo:42048:1,2017-05-20T01:30:00Z,27.9396,-96.8429,2.0,227.6758976,47.70395476,-99999.0,'11111222,11111222,99999999' 
TABS,ioos:station:wmo:42048:1,2017-05-20T02:00:00Z,27.9396,-96.8429,2.0,226.9472961,47.0214802,-99999.0,'11111222,11111222,99999999' 
TABS,ioos:station:wmo:42048:1,2017-05-20T02:30:00Z,27.9396,-96.8429,2.0,221.8399644,46.95255904,-99999.0,'11111222,11111222,99999999' 
TABS,ioos:station:wmo:42048:1,2017-05-20T03:00:00Z,27.9396,-96.8429,2.0,225.4273237,44.52775427,-99999.0,'11111222,11111222,99999999' 
TABS,ioos:station:wmo:42048:1,2017-05-20T03:30:00Z,27.9396,-96.8429,2.0,224.8861903,42.83661284,-99999.0,'11111222,11111222,99999999' 
TABS,ioos:station:wmo:42048:1,2017-05-20T04:00:00Z,27.9396,-96.8429,2.0,222.5411187,42.03376381,-99999.0,'11111222,11111222,99999999' 
TABS,ioos:station:wmo:42048:1,2017-05-20T04:30:00Z,27.9396,-96.8429,2.0,227.7198716,44.10244664,-99999.0,'11111222,11111222,99999999' 
TABS,ioos:station:wmo:42048:1,2017-05-20T05:00:00Z,27.9396,-96.8429,2.0,222.7591596,47.20718272,-99999.0,'11111222,11111222,99999999' 
TABS,ioos:station:wmo:42048:1,2017-05-20T05:30:00Z,27.9396,-96.8429,2.0,221.1680157,48.99180442,-99999.0,'11111222,11111222,99999999' 
TABS,ioos:station:wmo:42048:1,2017-05-20T06:00:00Z,27.9396,-96.8429,2.0,220.065103,47.43174992,-99999.0,'11111222,11111222,99999999' 
TABS,ioos:station:wmo:42048:1,2017-05-20T08:30:00Z,27.9396,-96.8429,2.0,215.6856201,42.68511333,-99999.0,'11111222,11111222,99999999' 
TABS,ioos:station:wmo:42048:1,2017-05-20T09:00:00Z,27.9396,-96.8429,2.0,211.7105608,39.59038393,-99999.0,'11111222,11111222,99999999' 
TABS,ioos:station:wmo:42048:1,2017-05-20T09:30:00Z,27.9396,-96.8429,2.0,218.9173618,39.90748551,-99999.0,'11111222,11111222,99999999' 
TABS,ioos:station:wmo:42048:1,2017-05-20T10:00:00Z,27.9396,-96.8429,2.0,227.1750558,48.62034656,-99999.0,'11111222,11111222,99999999' 
TABS,ioos:station:wmo:42048:1,2017-05-20T10:30:00Z,27.9396,-96.8429,2.0,222.8096509,49.59026517,-99999.0,'11111222,11111222,99999999' 
TABS,ioos:station:wmo:42048:1,2017-05-20T11:00:00Z,27.9396,-96.8429,2.0,222.4374632,46.97764255,-99999.0,'11111222,11111222,99999999' 
TABS,ioos:station:wmo:42048:1,2017-05-20T11:30:00Z,27.9396,-96.8429,2.0,222.930088,45.42588689,-99999.0,'11111222,11111222,99999999' 
TABS,ioos:station:wmo:42048:1,2017-05-20T12:00:00Z,27.9396,-96.8429,2.0,222.974969,45.43169048,-99999.0,'11111222,11111222,99999999' 
TABS,ioos:station:wmo:42048:1,2017-05-20T12:30:00Z,27.9396,-96.8429,2.0,218.1779792,47.38635458,-99999.0,'11111222,11111222,99999999' 
TABS,ioos:station:wmo:42048:1,2017-05-20T13:00:00Z,27.9396,-96.8429,2.0,219.1062227,48.27477706,-99999.0,'11111222,11111222,99999999' 
TABS,ioos:station:wmo:42048:1,2017-05-20T13:30:00Z,27.9396,-96.8429,2.0,222.3956689,50.42635819,-99999.0,'11111222,11111222,99999999' 
TABS,ioos:station:wmo:42048:1,2017-05-20T14:00:00Z,27.9396,-96.8429,2.0,226.9764713,45.09782478,-99999.0,'11111222,11111222,99999999' 
TABS,ioos:station:wmo:42048:1,2017-05-20T14:30:00Z,27.9396,-96.8429,2.0,220.4669696,58.42712469,-99999.0,'11111222,11111222,99999999' 
TABS,ioos:station:wmo:42048:1,2017-05-20T15:00:00Z,27.9396,-96.8429,2.0,219.7435179,54.64873283,-99999.0,'11111222,11111222,99999999' 
TABS,ioos:station:wmo:42048:1,2017-05-20T15:30:00Z,27.9396,-96.8429,2.0,214.970937,56.44098688,-99999.0,'11111222,11111222,99999999' 
TABS,ioos:station:wmo:42048:1,2017-05-20T16:00:00Z,27.9396,-96.8429,2.0,210.9599983,56.5465136,-99999.0,'11111222,11111222,99999999' 
TABS,ioos:station:wmo:42048:1,2017-05-20T16:30:00Z,27.9396,-96.8429,2.0,209.8359298,54.46992289,-99999.0,'11111222,11111222,99999999' 
TABS,ioos:station:wmo:42048:1,2017-05-20T17:00:00Z,27.9396,-96.8429,2.0,212.0774508,53.72179539,-99999.0,'11111222,11111222,99999999' 
TABS,ioos:station:wmo:42048:1,2017-05-20T17:30:00Z,27.9396,-96.8429,2.0,211.0543565,57.30289434,-99999.0,'11111222,11111222,99999999' 
TABS,ioos:station:wmo:42048:1,2017-05-20T18:00:00Z,27.9396,-96.8429,2.0,226.3084087,48.91626519,-99999.0,'11111222,11111222,99999999' 
TABS,ioos:station:wmo:42048:1,2017-05-20T18:30:00Z,27.9396,-96.8429,2.0,234.2541617,55.44467603,-99999.0,'11111222,11111222,99999999' 
TABS,ioos:station:wmo:42048:1,2017-05-20T19:00:00Z,27.9396,-96.8429,2.0,233.2523032,56.11012832,-99999.0,'11111222,11111222,99999999' 
TABS,ioos:station:wmo:42048:1,2017-05-20T19:30:00Z,27.9396,-96.8429,2.0,237.0910428,58.77040497,-99999.0,'11111222,11111222,99999999' 
TABS,ioos:station:wmo:42048:1,2017-05-20T20:00:00Z,27.9396,-96.8429,2.0,234.8594125,57.31611466,-99999.0,'11111222,11111222,99999999' 
TABS,ioos:station:wmo:42048:1,2017-05-20T20:30:00Z,27.9396,-96.8429,2.0,237.5689376,62.97090916,-99999.0,'11111222,11111222,99999999' 
TABS,ioos:station:wmo:42048:1,2017-05-20T21:00:00Z,27.9396,-96.8429,2.0,233.2358269,68.06811662,-99999.0,'11111222,11111222,99999999' 
TABS,ioos:station:wmo:42048:1,2017-05-20T21:30:00Z,27.9396,-96.8429,2.0,238.1417018,73.73793664,-99999.0,'11111222,11111222,99999999' 
TABS,ioos:station:wmo:42048:1,2017-05-20T22:00:00Z,27.9396,-96.8429,2.0,234.3122431,76.95038726,-99999.0,'11111222,11111222,99999999' 
TABS,ioos:station:wmo:42048:1,2017-05-20T22:30:00Z,27.9396,-96.8429,2.0,236.0563226,72.78292382,-99999.0,'11111222,11111222,99999999' 
TABS,ioos:station:wmo:42048:1,2017-05-20T23:00:00Z,27.9396,-96.8429,2.0,235.7209648,71.00259854,-99999.0,'11111222,11111222,99999999' 
TABS,ioos:station:wmo:42048:1,2017-05-20T23:30:00Z,27.9396,-96.8429,2.0,233.8882697,67.68393088,-99999.0,'11111222,11111222,99999999' 
TABS,ioos:station:wmo:42048:1,2017-05-21T00:00:00Z,27.9396,-96.8429,2.0,237.2434835,67.38561048,-99999.0,'11111222,11111222,99999999' 
TABS,ioos:station:wmo:42048:1,2017-05-21T00:30:00Z,27.9396,-96.8429,2.0,234.616892,62.344999,-99999.0,'11111222,11111222,99999999' 
TABS,ioos:station:wmo:42048:1,2017-05-21T01:00:00Z,27.9396,-96.8429,2.0,233.2029913,59.46804856,-99999.0,'11111222,11111222,99999999' 
TABS,ioos:station:wmo:42048:1,2017-05-21T01:30:00Z,27.9396,-96.8429,2.0,232.0504428,54.14960757,-99999.0,'11111222,11111222,99999999' 
TABS,ioos:station:wmo:42048:1,2017-05-21T02:00:00Z,27.9396,-96.8429,2.0,235.6871303,46.97478473,-99999.0,'11111222,11111222,99999999' 
TABS,ioos:station:wmo:42048:1,2017-05-21T02:30:00Z,27.9396,-96.8429,2.0,237.346789,47.65100733,-99999.0,'11111222,11111222,99999999' 
TABS,ioos:station:wmo:42048:1,2017-05-21T03:00:00Z,27.9396,-96.8429,2.0,229.6088424,43.99704763,-99999.0,'11111222,11111222,99999999' 
TABS,ioos:station:wmo:42048:1,2017-05-21T03:30:00Z,27.9396,-96.8429,2.0,222.2707406,43.81252447,-99999.0,'11111222,11111222,99999999' 
TABS,ioos:station:wmo:42048:1,2017-05-21T04:00:00Z,27.9396,-96.8429,2.0,222.4542828,44.74036321,-99999.0,'11111222,11111222,99999999' 
TABS,ioos:station:wmo:42048:1,2017-05-21T04:30:00Z,27.9396,-96.8429,2.0,226.0392838,43.64981558,-99999.0,'11111222,11111222,99999999' 
TABS,ioos:station:wmo:42048:1,2017-05-21T05:00:00Z,27.9396,-96.8429,2.0,222.0541838,41.14433254,-99999.0,'11111222,11111222,99999999' 
TABS,ioos:station:wmo:42048:1,2017-05-21T05:30:00Z,27.9396,-96.8429,2.0,219.945239,43.50065977,-99999.0,'11111222,11111222,99999999' 
TABS,ioos:station:wmo:42048:1,2017-05-21T06:00:00Z,27.9396,-96.8429,2.0,214.5234781,50.32218199,-99999.0,'11111222,11111222,99999999' 
TABS,ioos:station:wmo:42048:1,2017-05-21T06:30:00Z,27.9396,-96.8429,2.0,204.9805231,52.73322387,-99999.0,'11111222,11111222,99999999' 
TABS,ioos:station:wmo:42048:1,2017-05-21T07:00:00Z,27.9396,-96.8429,2.0,204.0587043,51.85481752,-99999.0,'11111222,11111222,99999999' 
TABS,ioos:station:wmo:42048:1,2017-05-21T07:30:00Z,27.9396,-96.8429,2.0,202.737423,53.86626774,-99999.0,'11111222,11111222,99999999' 
TABS,ioos:station:wmo:42048:1,2017-05-21T08:00:00Z,27.9396,-96.8429,2.0,201.4782985,49.43288379,-99999.0,'11111222,11111222,99999999' 
TABS,ioos:station:wmo:42048:1,2017-05-21T08:30:00Z,27.9396,-96.8429,2.0,211.1196292,43.41845806,-99999.0,'11111222,11111222,99999999' 
TABS,ioos:station:wmo:42048:1,2017-05-21T09:00:00Z,27.9396,-96.8429,2.0,208.1246763,50.1064916,-99999.0,'11111222,11111222,99999999' 
TABS,ioos:station:wmo:42048:1,2017-05-21T09:30:00Z,27.9396,-96.8429,2.0,203.3474763,51.95419232,-99999.0,'11111222,11111222,99999999' 
TABS,ioos:station:wmo:42048:1,2017-05-21T10:00:00Z,27.9396,-96.8429,2.0,200.4351118,45.56773091,-99999.0,'11111222,11111222,99999999' 
TABS,ioos:station:wmo:42048:1,2017-05-21T10:30:00Z,27.9396,-96.8429,2.0,204.1786026,44.8989276,-99999.0,'11111222,11111222,99999999' 
TABS,ioos:station:wmo:42048:1,2017-05-21T11:00:00Z,27.9396,-96.8429,2.0,220.8298776,33.93904094,-99999.0,'11111222,11111222,99999999' 
TABS,ioos:station:wmo:42048:1,2017-05-21T11:30:00Z,27.9396,-96.8429,2.0,227.3341338,37.67055747,-99999.0,'11111222,11111222,99999999' 
TABS,ioos:station:wmo:42048:1,2017-05-21T12:00:00Z,27.9396,-96.8429,2.0,224.8772579,46.32974207,-99999.0,'11111222,11111222,99999999' 
TABS,ioos:station:wmo:42048:1,2017-05-21T12:30:00Z,27.9396,-96.8429,2.0,230.2428386,63.21823234,-99999.0,'11111222,11111222,99999999' 
TABS,ioos:station:wmo:42048:1,2017-05-21T13:00:00Z,27.9396,-96.8429,2.0,235.3329568,73.87460998,-99999.0,'11111222,11111222,99999999' 
TABS,ioos:station:wmo:42048:1,2017-05-21T13:30:00Z,27.9396,-96.8429,2.0,235.7022307,69.33587311,-99999.0,'11111222,11111222,99999999' 
TABS,ioos:station:wmo:42048:1,2017-05-21T14:00:00Z,27.9396,-96.8429,2.0,240.8442276,66.79251829,-99999.0,'11111222,11111222,99999999' 
TABS,ioos:station:wmo:42048:1,2017-05-21T14:30:00Z,27.9396,-96.8429,2.0,239.242865,61.24425932,-99999.0,'11111222,11111222,99999999' 
TABS,ioos:station:wmo:42048:1,2017-05-21T15:00:00Z,27.9396,-96.8429,2.0,242.4111816,60.09273251,-99999.0,'11111222,11111222,99999999' 
TABS,ioos:station:wmo:42048:1,2017-05-21T15:30:00Z,27.9396,-96.8429,2.0,234.2377902,58.22888802,-99999.0,'11111222,11111222,99999999' 
TABS,ioos:station:wmo:42048:1,2017-05-21T16:00:00Z,27.9396,-96.8429,2.0,232.9178638,53.53636614,-99999.0,'11111222,11111222,99999999' 
TABS,ioos:station:wmo:42048:1,2017-05-21T16:30:00Z,27.9396,-96.8429,2.0,235.3688597,50.67869375,-99999.0,'11111222,11111222,99999999' 
TABS,ioos:station:wmo:42048:1,2017-05-21T17:00:00Z,27.9396,-96.8429,2.0,233.3234583,52.65430087,-99999.0,'11111222,11111222,99999999' 
TABS,ioos:station:wmo:42048:1,2017-05-21T17:30:00Z,27.9396,-96.8429,2.0,234.7274577,52.43638527,-99999.0,'11111222,11111222,99999999' 
TABS,ioos:station:wmo:42048:1,2017-05-21T18:00:00Z,27.9396,-96.8429,2.0,239.15517,51.90072928,-99999.0,'11111222,11111222,99999999' 
TABS,ioos:station:wmo:42048:1,2017-05-21T18:30:00Z,27.9396,-96.8429,2.0,236.6266701,51.11917938,-99999.0,'11111222,11111222,99999999' 
TABS,ioos:station:wmo:42048:1,2017-05-21T19:00:00Z,27.9396,-96.8429,2.0,235.3786365,53.77141434,-99999.0,'11111222,11111222,99999999' 
TABS,ioos:station:wmo:42048:1,2017-05-21T19:30:00Z,27.9396,-96.8429,2.0,235.4549109,51.31825114,-99999.0,'11111222,11111222,99999999' 
TABS,ioos:station:wmo:42048:1,2017-05-21T20:00:00Z,27.9396,-96.8429,2.0,233.7698484,47.44296049,-99999.0,'11111222,11111222,99999999' 
TABS,ioos:station:wmo:42048:1,2017-05-21T20:30:00Z,27.9396,-96.8429,2.0,230.1348609,49.53365422,-99999.0,'11111222,11111222,99999999' 
TABS,ioos:station:wmo:42048:1,2017-05-21T21:00:00Z,27.9396,-96.8429,2.0,234.6339345,55.39108683,-99999.0,'11111222,11111222,99999999' 
TABS,ioos:station:wmo:42048:1,2017-05-21T21:30:00Z,27.9396,-96.8429,2.0,227.054119,54.43978876,-99999.0,'11111222,11111222,99999999' 
TABS,ioos:station:wmo:42048:1,2017-05-21T22:00:00Z,27.9396,-96.8429,2.0,226.6583611,51.30087913,-99999.0,'11111222,11111222,99999999' 
TABS,ioos:station:wmo:42048:1,2017-05-21T22:30:00Z,27.9396,-96.8429,2.0,226.0381623,51.49997476,-99999.0,'11111222,11111222,99999999' 
TABS,ioos:station:wmo:42048:1,2017-05-21T23:00:00Z,27.9396,-96.8429,2.0,224.8033711,57.78510535,-99999.0,'11111222,11111222,99999999' 
TABS,ioos:station:wmo:42048:1,2017-05-21T23:30:00Z,27.9396,-96.8429,2.0,224.3931899,60.12158681,-99999.0,'11111222,11111222,99999999' 
TABS,ioos:station:wmo:42048:1,2017-05-22T00:00:00Z,27.9396,-96.8429,2.0,227.7951421,60.74912427,-99999.0,'11111222,11111222,99999999' 
TABS,ioos:station:wmo:42048:1,2017-05-22T00:30:00Z,27.9396,-96.8429,2.0,222.5529695,63.27302901,-99999.0,'11111222,11111222,99999999' 
TABS,ioos:station:wmo:42048:1,2017-05-22T01:00:00Z,27.9396,-96.8429,2.0,225.1027885,66.80048578,-99999.0,'11111222,11111222,99999999' 
TABS,ioos:station:wmo:42048:1,2017-05-22T01:30:00Z,27.9396,-96.8429,2.0,223.8421104,67.20300142,-99999.0,'11111222,11111222,99999999' 
TABS,ioos:station:wmo:42048:1,2017-05-22T02:00:00Z,27.9396,-96.8429,2.0,225.6735768,66.73428279,-99999.0,'11111222,11111222,99999999' 
TABS,ioos:station:wmo:42048:1,2017-05-22T02:30:00Z,27.9396,-96.8429,2.0,225.6315083,67.97123656,-99999.0,'11111222,11111222,99999999' 
TABS,ioos:station:wmo:42048:1,2017-05-22T03:00:00Z,27.9396,-96.8429,2.0,224.0241561,63.96000782,-99999.0,'11111222,11111222,99999999' 
TABS,ioos:station:wmo:42048:1,2017-05-22T03:30:00Z,27.9396,-96.8429,2.0,219.7454816,67.48699578,-99999.0,'11111222,11111222,99999999' 
TABS,ioos:station:wmo:42048:1,2017-05-22T04:00:00Z,27.9396,-96.8429,2.0,219.0309996,59.97667046,-99999.0,'11111222,11111222,99999999' 
TABS,ioos:station:wmo:42048:1,2017-05-22T04:30:00Z,27.9396,-96.8429,2.0,221.0502796,59.3398972,-99999.0,'11111222,11111222,99999999' 
TABS,ioos:station:wmo:42048:1,2017-05-22T05:00:00Z,27.9396,-96.8429,2.0,216.1106977,58.43712604,-99999.0,'11111222,11111222,99999999' 
TABS,ioos:station:wmo:42048:1,2017-05-22T05:30:00Z,27.9396,-96.8429,2.0,224.5528548,44.42887012,-99999.0,'11111222,11111222,99999999' 
TABS,ioos:station:wmo:42048:1,2017-05-22T06:00:00Z,27.9396,-96.8429,2.0,225.8473884,42.53712849,-99999.0,'11111222,11111222,99999999' 
TABS,ioos:station:wmo:42048:1,2017-05-22T06:30:00Z,27.9396,-96.8429,2.0,229.2461327,41.63560976,-99999.0,'11111222,11111222,99999999' 
TABS,ioos:station:wmo:42048:1,2017-05-22T07:00:00Z,27.9396,-96.8429,2.0,221.6853695,35.59164649,-99999.0,'11111222,11111222,99999999' 
TABS,ioos:station:wmo:42048:1,2017-05-22T07:30:00Z,27.9396,-96.8429,2.0,218.2603286,32.0554426,-99999.0,'11111222,11111222,99999999' 
TABS,ioos:station:wmo:42048:1,2017-05-22T08:00:00Z,27.9396,-96.8429,2.0,219.9902768,34.4971564,-99999.0,'11111222,11111222,99999999' 
TABS,ioos:station:wmo:42048:1,2017-05-22T08:30:00Z,27.9396,-96.8429,2.0,225.9016882,29.64558989,-99999.0,'11111222,11111222,99999999' 
TABS,ioos:station:wmo:42048:1,2017-05-22T09:00:00Z,27.9396,-96.8429,2.0,211.5561779,28.681243,-99999.0,'11111222,11111222,99999999' 
TABS,ioos:station:wmo:42048:1,2017-05-22T09:30:00Z,27.9396,-96.8429,2.0,205.3943153,23.64464421,-99999.0,'11111222,11111222,99999999' 
TABS,ioos:station:wmo:42048:1,2017-05-22T10:00:00Z,27.9396,-96.8429,2.0,218.0643747,16.68962852,-99999.0,'11111222,11111222,99999999' 
TABS,ioos:station:wmo:42048:1,2017-05-22T10:30:00Z,27.9396,-96.8429,2.0,216.608841,12.74413198,-99999.0,'11111222,11111222,99999999' 
TABS,ioos:station:wmo:42048:1,2017-05-22T11:00:00Z,27.9396,-96.8429,2.0,212.1247129,18.78638337,-99999.0,'11111222,11111222,99999999' 
TABS,ioos:station:wmo:42048:1,2017-05-22T11:30:00Z,27.9396,-96.8429,2.0,198.2399298,31.6292839,-99999.0,'11111222,11111222,99999999' 
TABS,ioos:station:wmo:42048:1,2017-05-22T12:00:00Z,27.9396,-96.8429,2.0,228.5813263,47.53972023,-99999.0,'11111222,11111222,99999999' 
TABS,ioos:station:wmo:42048:1,2017-05-22T12:30:00Z,27.9396,-96.8429,2.0,235.6340347,54.10367086,-99999.0,'11111222,11111222,99999999' 
TABS,ioos:station:wmo:42048:1,2017-05-22T13:00:00Z,27.9396,-96.8429,2.0,240.2405491,54.98087849,-99999.0,'11111222,11111222,99999999' 
TABS,ioos:station:wmo:42048:1,2017-05-22T13:30:00Z,27.9396,-96.8429,2.0,238.873228,56.17801794,-99999.0,'11111222,11111222,99999999' 
TABS,ioos:station:wmo:42048:1,2017-05-22T14:00:00Z,27.9396,-96.8429,2.0,247.849393,63.44213111,-99999.0,'11111222,11111222,99999999' 
TABS,ioos:station:wmo:42048:1,2017-05-22T14:30:00Z,27.9396,-96.8429,2.0,250.7648378,61.16440959,-99999.0,'11111222,11111222,99999999' 
TABS,ioos:station:wmo:42048:1,2017-05-22T15:00:00Z,27.9396,-96.8429,2.0,239.8386275,62.67516414,-99999.0,'11111222,11111222,99999999' 
TABS,ioos:station:wmo:42048:1,2017-05-22T15:30:00Z,27.9396,-96.8429,2.0,241.0203651,72.40553846,-99999.0,'11111222,11111222,99999999' 
TABS,ioos:station:wmo:42048:1,2017-05-22T16:00:00Z,27.9396,-96.8429,2.0,241.3523899,64.62031027,-99999.0,'11111222,11111222,99999999' 
TABS,ioos:station:wmo:42048:1,2017-05-22T16:30:00Z,27.9396,-96.8429,2.0,239.986351,60.89552118,-99999.0,'11111222,11111222,99999999' 
TABS,ioos:station:wmo:42048:1,2017-05-22T17:00:00Z,27.9396,-96.8429,2.0,236.8351233,58.05736474,-99999.0,'11111222,11111222,99999999' 
TABS,ioos:station:wmo:42048:1,2017-05-22T17:30:00Z,27.9396,-96.8429,2.0,238.9130486,55.99098677,-99999.0,'11111222,11111222,99999999' 
TABS,ioos:station:wmo:42048:1,2017-05-22T18:00:00Z,27.9396,-96.8429,2.0,235.8185606,49.83886937,-99999.0,'11111222,11111222,99999999' 
TABS,ioos:station:wmo:42048:1,2017-05-22T18:30:00Z,27.9396,-96.8429,2.0,230.1254958,50.25707214,-99999.0,'11111222,11111222,99999999' 
TABS,ioos:station:wmo:42048:1,2017-05-22T19:00:00Z,27.9396,-96.8429,2.0,233.4765025,47.9208775,-99999.0,'11111222,11111222,99999999' 
TABS,ioos:station:wmo:42048:1,2017-05-22T19:30:00Z,27.9396,-96.8429,2.0,230.4241759,43.68269451,-99999.0,'11111222,11111222,99999999' 
TABS,ioos:station:wmo:42048:1,2017-05-22T20:00:00Z,27.9396,-96.8429,2.0,228.5295217,40.7713441,-99999.0,'11111222,11111222,99999999' 
TABS,ioos:station:wmo:42048:1,2017-05-22T20:30:00Z,27.9396,-96.8429,2.0,226.6172531,43.83687603,-99999.0,'11111222,11111222,99999999' 
TABS,ioos:station:wmo:42048:1,2017-05-22T21:00:00Z,27.9396,-96.8429,2.0,229.9990083,46.25103026,-99999.0,'11111222,11111222,99999999' 
TABS,ioos:station:wmo:42048:1,2017-05-22T21:30:00Z,27.9396,-96.8429,2.0,231.3237698,44.48609783,-99999.0,'11111222,11111222,99999999' 
TABS,ioos:station:wmo:42048:1,2017-05-22T22:00:00Z,27.9396,-96.8429,2.0,232.8846915,39.2763593,-99999.0,'11111222,11111222,99999999' 
TABS,ioos:station:wmo:42048:1,2017-05-22T22:30:00Z,27.9396,-96.8429,2.0,232.8839445,43.35239901,-99999.0,'11111222,11111222,99999999' 
TABS,ioos:station:wmo:42048:1,2017-05-22T23:00:00Z,27.9396,-96.8429,2.0,223.5692486,42.77207617,-99999.0,'11111222,11111222,99999999' 
TABS,ioos:station:wmo:42048:1,2017-05-22T23:30:00Z,27.9396,-96.8429,2.0,224.3252368,46.25505918,-99999.0,'11111222,11111222,99999999' 
TABS,ioos:station:wmo:42048:1,2017-05-23T00:00:00Z,27.9396,-96.8429,2.0,217.6803343,42.40424507,-99999.0,'11111222,11111222,99999999' 
TABS,ioos:station:wmo:42048:1,2017-05-23T00:30:00Z,27.9396,-96.8429,2.0,218.8176626,41.30187042,-99999.0,'11111222,11111222,99999999' 
TABS,ioos:station:wmo:42048:1,2017-05-23T01:00:00Z,27.9396,-96.8429,2.0,219.280681,43.07213136,-99999.0,'11111222,11111222,99999999' 
TABS,ioos:station:wmo:42048:1,2017-05-23T01:30:00Z,27.9396,-96.8429,2.0,221.5148619,40.59936083,-99999.0,'11111222,11111222,99999999' 
TABS,ioos:station:wmo:42048:1,2017-05-23T02:00:00Z,27.9396,-96.8429,2.0,218.6899306,41.17677986,-99999.0,'11111222,11111222,99999999' 
TABS,ioos:station:wmo:42048:1,2017-05-23T02:30:00Z,27.9396,-96.8429,2.0,216.1768709,42.1830831,-99999.0,'11111222,11111222,99999999' 
TABS,ioos:station:wmo:42048:1,2017-05-23T03:00:00Z,27.9396,-96.8429,2.0,224.2155191,50.63358767,-99999.0,'11111222,11111222,99999999' 
TABS,ioos:station:wmo:42048:1,2017-05-23T03:30:00Z,27.9396,-96.8429,2.0,225.8374522,55.13193811,-99999.0,'11111222,11111222,99999999' 
TABS,ioos:station:wmo:42048:1,2017-05-23T04:00:00Z,27.9396,-96.8429,2.0,226.1179144,53.26235537,-99999.0,'11111222,11111222,99999999' 
TABS,ioos:station:wmo:42048:1,2017-05-23T04:30:00Z,27.9396,-96.8429,2.0,222.8905127,52.83545874,-99999.0,'11111222,11111222,99999999' 
TABS,ioos:station:wmo:42048:1,2017-05-23T05:00:00Z,27.9396,-96.8429,2.0,220.5265348,52.58507203,-99999.0,'11111222,11111222,99999999' 
TABS,ioos:station:wmo:42048:1,2017-05-23T05:30:00Z,27.9396,-96.8429,2.0,224.4618614,51.22507199,-99999.0,'11111222,11111222,99999999' 
TABS,ioos:station:wmo:42048:1,2017-05-23T06:00:00Z,27.9396,-96.8429,2.0,221.3774247,52.26768505,-99999.0,'11111222,11111222,99999999' 
TABS,ioos:station:wmo:42048:1,2017-05-23T06:30:00Z,27.9396,-96.8429,2.0,221.9765461,49.33986623,-99999.0,'11111222,11111222,99999999' 
TABS,ioos:station:wmo:42048:1,2017-05-23T07:00:00Z,27.9396,-96.8429,2.0,221.403062,53.5415138,-99999.0,'11111222,11111222,99999999' 
TABS,ioos:station:wmo:42048:1,2017-05-23T07:30:00Z,27.9396,-96.8429,2.0,223.2724422,55.12988028,-99999.0,'11111222,11111222,99999999' 
TABS,ioos:station:wmo:42048:1,2017-05-23T08:00:00Z,27.9396,-96.8429,2.0,221.4343404,48.32528634,-99999.0,'11111222,11111222,99999999' 
TABS,ioos:station:wmo:42048:1,2017-05-23T08:30:00Z,27.9396,-96.8429,2.0,221.5759645,48.19048558,-99999.0,'11111222,11111222,99999999' 
TABS,ioos:station:wmo:42048:1,2017-05-23T09:00:00Z,27.9396,-96.8429,2.0,222.9860307,43.26629751,-99999.0,'11111222,11111222,99999999' 
TABS,ioos:station:wmo:42048:1,2017-05-23T09:30:00Z,27.9396,-96.8429,2.0,228.5698091,36.67809837,-99999.0,'11111222,11111222,99999999' 
TABS,ioos:station:wmo:42048:1,2017-05-23T10:00:00Z,27.9396,-96.8429,2.0,217.7096684,43.24264793,-99999.0,'11111222,11111222,99999999' 